[[[{"header":{"parameterUnit":"kt","parameterCategory":2,"dx":1,"dy":1,"la1":30.253999710083008,"la2":30.299108505249023,"lo1":-89.0895004272461,"lo2":-89.04439544677734,"nx":28,"ny":28,"refTime":"2022-09-17T21:00:00:Z","depth":0,"parameterNumber":1,"parameterNumberName":"U-component_of_WINDS"},"data":[-9.883,-9.8922,-9.8879,-9.8966,-9.8942,-9.8993,-9.8998,-9.9,-9.899,-9.9049,-9.9075,-9.9041,-9.9013,-9.9035,-9.9061,-9.9045,-9.9057,-9.9125,-9.9093,-9.8831,-9.8792,-9.8754,-9.8726,-9.913,-9.9131,-9.9368,-9.9371,-9.9372,-9.8652,-9.8629,-9.8662,-9.8662,-9.869,-9.86,-9.8594,-9.8623,-9.8671,-9.866,-9.8681,-9.8729,-9.8761,-9.8707,-9.873,-9.8774,-9.873,-9.8783,-9.8776,-9.8772,-9.8492,-9.8464,-9.8819,-9.8819,-9.8819,-9.8818,-9.8818,-9.8818,-9.8316,-9.8373,-9.8345,-9.8378,-9.8366,-9.8368,-9.8414,-9.8368,-9.8399,-9.8414,-9.8354,-9.8408,-9.8386,-9.8388,-9.8378,-9.8419,-9.8351,-9.8393,-9.8402,-9.8413,-9.8432,-9.8092,-9.8421,-9.842,-9.8419,-9.8418,-9.8417,0,-9.8053,-9.8011,-9.8036,-9.805,-9.8071,-9.8076,-9.8072,-9.8101,-9.7992,-9.8022,-9.8061,-9.8075,-9.8105,-9.8136,-9.8146,-9.8123,-9.8025,-9.8012,-9.804,-9.8066,-9.8092,-9.8076,-9.7618,-9.8,-9.7996,-9.7993,-9.7991,-9.799,-9.7706,-9.7777,-9.7723,-9.7748,-9.7732,-9.7773,-9.7787,-9.7684,-9.7704,-9.7685,-9.7741,-9.7771,-9.7787,-9.7858,-9.7798,-9.782,-9.7771,-9.7922,-9.7773,-9.78,-9.7768,-9.7763,-9.7769,-9.795,-9.7955,-9.7959,-9.7963,0,-9.7516,-9.7435,-9.7528,-9.7465,-9.7452,-9.7532,-9.7477,-9.753,-9.7476,-9.754,-9.7549,-9.7463,-9.7502,-9.7417,-9.7444,-9.7398,-9.7533,-9.7488,-9.7541,-9.7525,-9.7649,-9.7637,-9.807,-9.812,-9.7706,-9.771,-9.7713,0,-9.7185,-9.7281,-9.7154,-9.7212,-9.7318,-9.7207,-9.7315,-9.7276,-9.725,-9.7299,-9.7175,-9.7225,-9.7105,-9.7144,-9.7075,-9.7171,-9.7176,-9.7145,-9.7124,-9.7152,-9.7156,-9.7154,-9.7132,-9.7079,-9.7077,-9.7075,-9.7073,0,-9.6888,-9.6932,-9.7027,-9.7022,-9.696,-9.7008,-9.6985,-9.6951,-9.6965,-9.697,-9.6977,-9.6992,-9.6998,-9.7013,-9.6923,-9.6825,-9.7038,-9.6884,-9.7004,-9.7007,-9.7049,-9.7046,-9.7459,-9.707,-9.707,-9.7069,-9.7068,0,-9.6603,-9.6607,-9.6757,-9.67,-9.6715,-9.6778,-9.678,-9.6814,-9.6788,-9.6747,-9.6749,-9.6651,-9.6727,-9.6581,-9.6684,-9.6581,-9.6597,-9.6573,-9.658,-9.6574,-9.641,-9.6648,-9.7055,-9.7091,-9.6582,-9.6577,-9.6574,0,-9.6286,-9.6412,-9.6313,-9.6458,-9.6502,-9.6353,-9.6422,-9.64,-9.635,-9.6382,-9.6327,-9.6363,-9.6236,-9.6233,-9.6298,-9.624,-9.6375,-9.6221,-9.6267,-9.627,-9.6273,-9.6648,-9.6726,-9.6977,-9.6521,-9.6526,-9.653,0,-9.6026,-9.5942,-9.5974,-9.5962,-9.5911,-9.5947,-9.6027,-9.6035,-9.6062,-9.6051,-9.6112,-9.6164,-9.6068,-9.6066,-9.5985,-9.6056,-9.6281,-9.5942,-9.5939,-9.6003,-9.6487,-9.6561,-9.6604,-9.6212,-9.6219,-9.6224,-9.6488,0,-9.5609,-9.5658,-9.5742,-9.5717,-9.573,-9.5814,-9.5711,-9.5739,-9.5658,-9.5599,-9.569,-9.5645,-9.5653,-9.5677,-9.5598,-9.5788,-9.574,-9.5636,-9.5479,-9.5728,-9.5812,-9.5847,-9.5363,-9.5358,-9.5354,-9.535,0,0,-9.5323,-9.5388,-9.527,-9.5338,-9.534,-9.5177,-9.5275,-9.5259,-9.523,-9.5236,-9.5149,-9.5212,-9.5177,-9.5297,-9.5367,-9.5372,-9.5395,-9.5309,-9.5612,-9.5641,-9.5669,-9.5761,-9.5799,-9.5342,-9.5341,-9.5339,-9.5338,0,-9.5145,-9.5111,-9.5207,-9.5184,-9.5145,-9.5074,-9.51,-9.503,-9.4995,-9.5081,-9.4942,-9.4984,-9.5035,-9.5015,-9.5013,-9.5296,-9.5186,-9.5307,-9.5492,-9.5572,-9.5607,-9.5638,-9.5736,-9.5774,-9.5327,-9.5328,-9.5328,0,-9.4866,-9.4814,-9.4848,-9.4842,-9.4813,-9.4862,-9.4674,-9.4732,-9.4766,-9.4579,-9.4664,-9.4625,-9.459,-9.4717,-9.4769,-9.469,-9.5001,-9.4884,-9.4909,-9.491,-9.4982,-9.5025,-9.5063,-9.4559,-9.4557,-9.4555,0,0,-9.4726,-9.4768,-9.4674,-9.4795,-9.4787,-9.4682,-9.4695,-9.4612,-9.4582,-9.457,-9.4513,-9.449,-9.4517,-9.4538,-9.4558,-9.4713,-9.4694,-9.4794,-9.483,-9.486,-9.4878,-9.4958,-9.5,-9.4546,-9.4546,-9.4546,0,0,-9.4657,-9.4551,-9.4472,-9.4598,-9.4575,-9.4488,-9.4567,-9.4468,-9.4473,-9.4451,-9.4313,-9.43,-9.4416,-9.4381,-9.428,-9.4499,-9.4348,-9.4369,-9.4516,-9.456,-9.4596,-9.4599,-9.4075,0,0,0,0,0,-9.4416,-9.4564,-9.4494,-9.4498,-9.4487,-9.4529,-9.4527,-9.4414,-9.4309,-9.4375,-9.4312,-9.4192,-9.4298,-9.4205,-9.4213,-9.4325,-9.4436,-9.4456,-9.4474,-9.4699,-9.4746,-9.4786,0,0,0,0,0,0,-9.4417,-9.4423,-9.4489,-9.4411,-9.4407,-9.4522,-9.4319,-9.4293,-9.4299,-9.4275,-9.4209,-9.419,-9.4096,-9.4194,-9.4203,-9.431,-9.4072,-9.4444,-9.446,-9.4475,-9.4715,-9.4754,-9.4787,0,0,0,0,0,-9.4417,-9.4422,-9.4432,-9.4408,-9.4404,-9.4291,-9.4313,-9.4289,-9.4291,-9.4191,-9.4168,-9.4206,-9.4102,-9.4102,-9.4198,-9.4309,-9.4065,-9.4069,-9.4455,-9.4468,-9.4479,-9.4734,0,0,0,0,0,0,-9.4417,-9.4401,-9.4428,-9.4423,-9.434,-9.4282,-9.4269,-9.4286,-9.4204,-9.4184,-9.418,-9.4162,-9.4109,-9.4107,-9.4108,-9.4315,-9.4059,-9.4063,-9.4066,-9.4465,-9.4475,-9.4484,0,0,0,0,0,0,-9.4398,-9.4398,-9.4426,-9.4347,-9.4332,-9.4275,-9.4263,-9.4328,-9.4205,-9.4197,-9.418,-9.4173,-9.4108,-9.4112,-9.4111,-9.4217,-9.4055,-9.4059,-9.4061,-9.4063,-9.4473,-9.4481,0,0,0,0,0,0,-9.4396,-9.4396,-9.4348,-9.4337,-9.4322,-9.4257,-9.433,-9.4324,-9.4138,-9.4204,-9.4118,-9.4109,-9.4116,-9.4113,-9.4115,-9.4222,-9.4218,-9.4055,-9.4058,-9.4059,-9.4061,0,0,0,0,0,0,0,-9.4394,-9.4418,-9.4459,-9.4327,-9.4315,-9.4377,-9.4375,-9.4374,-9.4136,-9.4128,-9.412,-9.4113,-9.4034,-9.4038,-9.4042,-9.4226,0,0,-9.4055,-9.4057,0,0,0,0,0,0,0,0,-9.4416,-9.4418,-9.4459,-9.4458,-9.4457,-9.4376,-9.4375,-9.4374,-9.4134,-9.4128,-9.4122,-9.4116,-9.4035,-9.4039,-9.4042,0,0,0,0,0,0,0,0,0,0,0,0,0,0,0,-9.4459,-9.4458,0,-9.4376,-9.4375,-9.4374,-9.4134,-9.4128,-9.4123,-9.4118,-9.4036,-9.4039,-9.4042,0,0,0,0,0,0,0,0,0,0,0,0,0,0,0,0,0,0,0,0,0,0,0,0,0,0,0,0,0,0,0,0,0,0,0,0,0,0,0,0,0,0,0,0,0,0,0,0,0,0,0,0,0,0,0,0,0,0,0,0,0,0,0,0,0,0,0,0,0]}],[{"header":{"parameterUnit":"kt","parameterCategory":2,"dx":1,"dy":1,"la1":30.253999710083008,"la2":30.299108505249023,"lo1":-89.0895004272461,"lo2":-89.04439544677734,"nx":28,"ny":28,"refTime":"2022-09-17T21:00:00:Z","depth":0,"parameterNumber":2,"parameterNumberName":"V-component_of_WINDS"},"data":[5.4684,5.4633,5.466,5.4613,5.4628,5.46,5.4597,5.4596,5.4601,5.4568,5.4553,5.4571,5.4583,5.4568,5.4551,5.4558,5.4547,5.4513,5.4527,5.4665,5.4685,5.4704,5.4719,5.4511,5.4511,5.438,5.4379,5.4378,5.4786,5.4801,5.4784,5.4785,5.477,5.4821,5.4824,5.4807,5.4779,5.4784,5.4771,5.4742,5.4721,5.4745,5.4727,5.4701,5.4721,5.4695,5.4695,5.4696,5.4845,5.486,5.4679,5.4679,5.4679,5.4679,5.4679,5.4679,5.4978,5.4947,5.4963,5.4945,5.4952,5.4951,5.4924,5.4948,5.493,5.4918,5.4949,5.4916,5.4924,5.4913,5.4915,5.4888,5.492,5.4897,5.4891,5.4883,5.4873,5.5057,5.4886,5.4886,5.4887,5.4887,5.4888,0,5.5126,5.515,5.5136,5.5128,5.5116,5.5112,5.5111,5.5095,5.515,5.5132,5.5107,5.5096,5.5073,5.5049,5.5037,5.5043,5.5087,5.5095,5.5078,5.5061,5.5049,5.5053,5.5293,5.5098,5.51,5.5101,5.5102,5.5103,5.532,5.5281,5.5309,5.5295,5.5301,5.5277,5.5267,5.5319,5.5305,5.531,5.5278,5.5257,5.5242,5.5193,5.5216,5.5197,5.5217,5.514,5.5214,5.5201,5.5213,5.5214,5.521,5.5123,5.512,5.5118,5.5117,0,5.5427,5.5469,5.5415,5.5446,5.5452,5.5407,5.5431,5.54,5.5426,5.5386,5.5379,5.5417,5.5389,5.5425,5.5398,5.5417,5.5338,5.536,5.5338,5.5343,5.5276,5.5281,5.5056,5.5029,5.5247,5.5245,5.5243,0,5.5607,5.5552,5.5618,5.5584,5.5525,5.5578,5.5517,5.5533,5.5541,5.551,5.5569,5.5538,5.5589,5.5562,5.559,5.5532,5.5527,5.5537,5.5544,5.553,5.5528,5.5518,5.5527,5.5565,5.5566,5.5567,5.5568,0,5.5768,5.5738,5.5684,5.5684,5.5709,5.5681,5.569,5.5699,5.5687,5.5678,5.5671,5.5654,5.5644,5.5629,5.5665,5.5714,5.5596,5.5669,5.5605,5.5604,5.5573,5.5574,5.537,5.5569,5.5569,5.557,5.557,0,5.5918,5.5912,5.5828,5.5851,5.584,5.5803,5.5793,5.5771,5.5775,5.5792,5.5783,5.5825,5.5779,5.585,5.5786,5.5839,5.5826,5.5831,5.5827,5.5822,5.5899,5.5776,5.5581,5.5561,5.5822,5.5824,5.5826,0,5.609,5.6016,5.6063,5.598,5.5951,5.6021,5.5981,5.5983,5.6002,5.5978,5.5997,5.5967,5.6028,5.6023,5.5987,5.6003,5.5934,5.6014,5.5972,5.597,5.5968,5.5789,5.575,5.5621,5.5853,5.5851,5.5849,0,5.6227,5.6261,5.6243,5.6244,5.6259,5.6233,5.6187,5.6171,5.6153,5.6148,5.6109,5.6067,5.6111,5.6101,5.6132,5.6093,5.5982,5.6144,5.6144,5.6112,5.587,5.5834,5.5812,5.6012,5.6008,5.6006,5.587,0,5.6444,5.6412,5.6366,5.6366,5.6353,5.6303,5.6344,5.6324,5.6358,5.6378,5.632,5.6328,5.6306,5.6291,5.6321,5.622,5.6241,5.6287,5.6355,5.6239,5.6195,5.6177,5.6418,5.6421,5.6422,5.6424,0,0,5.6596,5.6551,5.6602,5.6561,5.6552,5.6625,5.6567,5.6567,5.6562,5.6553,5.6594,5.6534,5.6537,5.6461,5.6429,5.642,5.6404,5.6442,5.6294,5.628,5.6266,5.6219,5.62,5.6427,5.6428,5.6429,5.6429,0,5.6683,5.6693,5.6638,5.6641,5.6647,5.6672,5.6659,5.6676,5.6686,5.663,5.6686,5.6655,5.6605,5.6601,5.6592,5.6454,5.6494,5.6445,5.6358,5.6312,5.6295,5.628,5.623,5.6211,5.6434,5.6433,5.6433,0,5.6825,5.684,5.6818,5.6805,5.6808,5.6775,5.686,5.682,5.6795,5.6869,5.6812,5.682,5.6817,5.6741,5.6708,5.6741,5.6575,5.6634,5.6623,5.6618,5.6576,5.6555,5.6537,5.6777,5.6778,5.6779,0,0,5.6894,5.6865,5.6895,5.6826,5.6825,5.6861,5.6847,5.6878,5.6878,5.6876,5.6888,5.6882,5.6854,5.6833,5.6808,5.6719,5.672,5.6674,5.6658,5.6645,5.6633,5.6587,5.6567,5.6783,5.6783,5.6783,0,0,5.6925,5.696,5.6995,5.692,5.692,5.6942,5.6897,5.6938,5.6921,5.693,5.6976,5.6977,5.6906,5.691,5.696,5.6832,5.6899,5.6888,5.6831,5.6811,5.6795,5.6794,5.7042,0,0,0,0,0,5.7035,5.6957,5.6988,5.6982,5.6962,5.6926,5.6923,5.6963,5.7011,5.6974,5.699,5.7035,5.6947,5.6993,5.6983,5.6926,5.6835,5.6826,5.6817,5.6723,5.6702,5.6684,0,0,0,0,0,0,5.7033,5.7025,5.699,5.7008,5.7004,5.6929,5.7019,5.7028,5.7016,5.7026,5.7031,5.7036,5.7065,5.7,5.6991,5.6935,5.7046,5.6831,5.6823,5.6816,5.6716,5.6699,5.6684,0,0,0,0,0,5.7032,5.7026,5.6984,5.701,5.7006,5.704,5.7022,5.703,5.7021,5.7045,5.7051,5.7052,5.7063,5.7058,5.6995,5.6939,5.7052,5.7049,5.6826,5.682,5.6814,5.6707,0,0,0,0,0,0,5.7031,5.7031,5.6984,5.6984,5.7043,5.7045,5.7048,5.7032,5.7042,5.7047,5.7069,5.7076,5.706,5.7057,5.7052,5.6938,5.7058,5.7054,5.7052,5.6821,5.6817,5.6812,0,0,0,0,0,0,5.7035,5.7031,5.6984,5.7024,5.7029,5.705,5.7051,5.7002,5.7041,5.7065,5.7072,5.7072,5.7065,5.7055,5.7052,5.6974,5.7062,5.7058,5.7056,5.7054,5.6818,5.6814,0,0,0,0,0,0,5.7034,5.703,5.7024,5.7028,5.7033,5.7038,5.7007,5.6982,5.708,5.7063,5.7089,5.7094,5.7062,5.706,5.7052,5.6974,5.6974,5.7062,5.7059,5.7058,5.7056,0,0,0,0,0,0,0,5.7033,5.7047,5.6983,5.7031,5.7036,5.6987,5.6987,5.6987,5.7081,5.7085,5.7088,5.7092,5.7081,5.7078,5.7074,5.6975,0,0,5.7062,5.706,0,0,0,0,0,0,0,0,5.7049,5.7047,5.6983,5.6983,5.6983,5.6987,5.6987,5.6987,5.7081,5.7085,5.7088,5.709,5.708,5.7077,5.7074,0,0,0,0,0,0,0,0,0,0,0,0,0,0,0,5.6983,5.6983,0,5.6987,5.6987,5.6987,5.7082,5.7084,5.7087,5.7089,5.7079,5.7077,5.7074,0,0,0,0,0,0,0,0,0,0,0,0,0,0,0,0,0,0,0,0,0,0,0,0,0,0,0,0,0,0,0,0,0,0,0,0,0,0,0,0,0,0,0,0,0,0,0,0,0,0,0,0,0,0,0,0,0,0,0,0,0,0,0,0,0,0,0,0,0]}]]]